COSMOS 1275 DEB, 42144

Orbit data source: Space-Track

COSMOS 1275 DEB, 42144 is space debris in LEO originally from a launch on Thu, 04 Jun 1981 UTC launched from the Plesetsk Missile And Space Complex (PKMTR). Debris objects in space refer to the collection of defunct objects orbiting the Earth. Examples of debris include non-operational satellites, rocket bodies, and fragments generated from explosions, collisions, or faulty payload assembly.

Loading next visibility...
Identifier
42144, 1981-053RG
Orbit
LEO
Country
Flag of CISCIS
Related business
Manufacturer
Unknown
Mission
Spacecraft
Bus & Motor
Unknown
Mass
Unknown
Launch date (UTC)
1981-06-04 (45 years ago)
Launch vehicle
Unknown
Launch site
Plesetsk Missile And Space Complex (PKMTR)
Object type
Payload
Rocket body
Debris
Shape & HBR
Unknown shape, 0.1 m
Radar Cross Section
Small (<0.1 m²)

Expand to show TLE details & history
Last TLE update: 6 days ago

TLE from 6 days ago
0 COSMOS 1275 DEB
1 42144U 81053RG  25337.12400383  .00000439  00000-0  34781-3 0  9995
2 42144  82.8059  95.9400 0058159 273.0623 266.0956 13.88694053608372
Epoch: 2025-12-03T02:58Z
TLE epoch observation values (Epoch: 2025-12-03T02:58:33.930Z)
Latitude
1.38785°
Longitude
158.92502°
Altitude
939.099 km
Speed
7.381 km/s
True Right ascension
18h 23m 03s
True Declination
1° 22' 47"
Sunlit
Object was in daylight at epoch
Visualization orbit readout
Latitude
Unknown
Longitude
Unknown
Altitude
Unknown
Speed
Unknown
Apparent Right ascension
Unknown
Apparent Declination
Unknown
Sunlit
N/A
Visualization observer readout
Local Sidereal Time
07:19:36
Azimuth
Unknown
Elevation
Unknown
Doppler factor
Unknown
Orbital elements
Apogee altitude
972.851 km
Perigee altitude
887.841 km
Semi-major axis
7,308.483 km
Eccentricity
0.00582
Inclination
82.8059°
RAAN
95.94°
Arg. of periapsis
273.0623°
True anomaly
265.43104°
Mean anomaly
266.0956°
Eccentric anomaly
265.76328°
Mean motion
3.47378 °/min
Orbital period
103.63 mins
BSTAR
0.00034781
Loading maneuver chart data...
Computing Atmospheric mass density...

Documentation

Showing up to 5 results
|